CT2IRK-11 Weather Reports


time (UTC)temp
C
wind
direction
speed
KPH
gust
KPH
rain 1hr
cm
rain 24hr
cm
rain mn
cm
humidity
%
barometer
mb
20200924150150 24 313 11.3 19.3 0.00 0.00 0.00 99 1012.0
20200924145726 24 278 9.7 19.3 0.00 0.00 0.00 99 1012.0
20200924145651 24 278 9.7 19.3 0.00 0.00 0.00 99 1012.0
20200924145230 23 300 11.3 19.3 0.00 0.00 0.00 99 1012.1
20200924145152 23 300 11.3 19.3 0.00 0.00 0.00 99 1012.1
20200924144731 23 262 12.9 19.3 0.00 0.00 0.00 99 1012.1
20200924144651 23 262 12.9 19.3 0.00 0.00 0.00 99 1012.1
20200924144225 23 281 14.5 19.3 0.00 0.00 0.00 99 1012.1
20200924144151 23 281 14.5 19.3 0.00 0.00 0.00 99 1012.1
20200924143727 23 319 4.8 19.3 0.00 0.00 0.00 99 1012.0
20200924143654 23 319 4.8 19.3 0.00 0.00 0.00 99 1012.0
20200924143226 23 271 14.5 19.3 0.00 0.00 0.00 99 1012.0
20200924143155 23 271 14.5 19.3 0.00 0.00 0.00 99 1012.0
20200924142727 23 295 9.7 19.3 0.00 0.00 0.00 99 1012.0
20200924142651 23 295 9.7 19.3 0.00 0.00 0.00 99 1012.0
20200924142225 23 270 16.1 19.3 0.00 0.00 0.00 99 1012.0
20200924142156 23 270 16.1 19.3 0.00 0.00 0.00 99 1012.0
20200924141726 24 275 9.7 17.7 0.00 0.00 0.00 99 1012.0
20200924141651 24 275 9.7 17.7 0.00 0.00 0.00 99 1012.0
20200924141227 23 306 11.3 17.7 0.00 0.00 0.00 99 1012.1
20200924141150 23 306 11.3 17.7 0.00 0.00 0.00 99 1012.1
20200924140727 23 263 12.9 17.7 0.00 0.00 0.00 99 1012.1
20200924140651 23 263 12.9 17.7 0.00 0.00 0.00 99 1012.1
20200924140228 23 270 9.7 17.7 0.00 0.00 0.00 99 1011.9
20200924140154 23 270 9.7 17.7 0.00 0.00 0.00 99 1011.9
20200924135727 24 338 6.4 17.7 0.00 0.00 0.00 99 1011.9
20200924135651 24 338 6.4 17.7 0.00 0.00 0.00 99 1011.9
20200924135227 24 355 9.7 17.7 0.00 0.00 0.00 99 1012.0
20200924135152 24 355 9.7 17.7 0.00 0.00 0.00 99 1012.0
20200924134729 24 326 9.7 17.7 0.00 0.00 0.00 99 1012.0
20200924134651 24 326 9.7 17.7 0.00 0.00 0.00 99 1012.0
20200924134232 25 237 9.7 17.7 0.00 0.00 0.00 99 1012.0
20200924134150 25 237 9.7 17.7 0.00 0.00 0.00 99 1012.0
20200924133726 25 278 6.4 17.7 0.00 0.00 0.00 99 1012.1
20200924133651 25 278 6.4 17.7 0.00 0.00 0.00 99 1012.1
20200924133226 25 274 8.0 17.7 0.00 0.00 0.00 99 1012.1
20200924133151 25 274 8.0 17.7 0.00 0.00 0.00 99 1012.1
20200924132727 26 292 4.8 17.7 0.00 0.00 0.00 99 1012.1
20200924132650 26 292 4.8 17.7 0.00 0.00 0.00 99 1012.1
20200924132226 25 252 6.4 17.7 0.00 0.00 0.00 99 1012.1
20200924132150 25 252 6.4 17.7 0.00 0.00 0.00 99 1012.1
20200924131727 26 275 8.0 17.7 0.00 0.00 0.00 99 1012.2
20200924131653 26 275 8.0 17.7 0.00 0.00 0.00 99 1012.2
20200924131225 26 265 1.6 17.7 0.00 0.00 0.00 99 1012.2
20200924131150 26 265 1.6 17.7 0.00 0.00 0.00 99 1012.2
20200924130727 26 269 4.8 17.7 0.00 0.00 0.00 99 1012.2
20200924130653 26 269 4.8 17.7 0.00 0.00 0.00 99 1012.2
20200924130228 25 237 4.8 17.7 0.00 0.00 0.00 99 1012.2
20200924130149 25 237 4.8 17.7 0.00 0.00 0.00 99 1012.2
20200924125725 25 301 6.4 17.7 0.00 0.00 0.00 99 1012.2
20200924125650 25 301 6.4 17.7 0.00 0.00 0.00 99 1012.2
20200924125228 25 125 3.2 17.7 0.00 0.00 0.00 99 1012.1
20200924125151 25 125 3.2 17.7 0.00 0.00 0.00 99 1012.1
20200924124729 24 270 4.8 17.7 0.00 0.00 0.00 99 1012.1
20200924124651 24 270 4.8 17.7 0.00 0.00 0.00 99 1012.1
20200924124226 24 260 8.0 17.7 0.00 0.00 0.00 99 1012.1
20200924124150 24 260 8.0 17.7 0.00 0.00 0.00 99 1012.1
20200924123731 23 256 6.4 17.7 0.00 0.00 0.00 99 1012.4
20200924123652 23 256 6.4 17.7 0.00 0.00 0.00 99 1012.4
20200924123225 23 257 4.8 17.7 0.00 0.00 0.00 99 1012.4
20200924123151 23 257 4.8 17.7 0.00 0.00 0.00 99 1012.4
20200924122727 23 292 4.8 17.7 0.00 0.00 0.00 99 1012.2
20200924122651 23 292 4.8 17.7 0.00 0.00 0.00 99 1012.2
20200924122226 24 347 6.4 17.7 0.00 0.00 0.00 99 1012.2
20200924122149 24 347 6.4 17.7 0.00 0.00 0.00 99 1012.2
20200924121725 24 357 4.8 17.7 0.00 0.00 0.00 99 1012.3
20200924121650 24 357 4.8 17.7 0.00 0.00 0.00 99 1012.3
20200924121229 24 270 6.4 17.7 0.00 0.00 0.00 99 1012.3
20200924121150 24 270 6.4 17.7 0.00 0.00 0.00 99 1012.3
20200924120728 23 33 6.4 17.7 0.00 0.00 0.00 99 1012.3
20200924120650 23 33 6.4 17.7 0.00 0.00 0.00 99 1012.3
20200924120226 23 68 0.0 17.7 0.00 0.00 0.00 99 1012.2
20200924120150 23 68 0.0 17.7 0.00 0.00 0.00 99 1012.2
20200924115726 22 45 3.2 17.7 0.00 0.00 0.00 99 1012.2
20200924115651 22 45 3.2 17.7 0.00 0.00 0.00 99 1012.2
20200924115225 22 54 6.4 17.7 0.00 0.00 0.00 99 1012.1
20200924115152 22 54 6.4 17.7 0.00 0.00 0.00 99 1012.1
20200924114725 23 286 3.2 17.7 0.00 0.00 0.00 99 1012.1
20200924114654 23 286 3.2 17.7 0.00 0.00 0.00 99 1012.1
20200924114226 23 296 4.8 17.7 0.00 0.00 0.00 99 1012.1
20200924114152 23 296 4.8 17.7 0.00 0.00 0.00 99 1012.1
20200924113724 23 341 0.0 17.7 0.00 0.00 0.00 99 1012.2
20200924113650 23 341 0.0 17.7 0.00 0.00 0.00 99 1012.2
20200924113225 23 337 3.2 17.7 0.00 0.00 0.00 99 1012.2
20200924113150 23 337 3.2 17.7 0.00 0.00 0.00 99 1012.2
20200924112726 23 202 0.0 17.7 0.00 0.00 0.00 99 1012.3
20200924112652 23 202 0.0 17.7 0.00 0.00 0.00 99 1012.3
20200924112226 22 57 1.6 17.7 0.00 0.00 0.00 99 1012.3
20200924112150 22 57 1.6 17.7 0.00 0.00 0.00 99 1012.3
20200924111725 22 11 0.0 17.7 0.00 0.00 0.00 99 1012.3
20200924111651 22 11 0.0 17.7 0.00 0.00 0.00 99 1012.3
20200924111225 21 83 0.0 17.7 0.00 0.00 0.00 99 1012.3
20200924111158 21 83 0.0 17.7 0.00 0.00 0.00 99 1012.3
20200924110727 21 311 0.0 17.7 0.00 0.00 0.00 99 1012.3
20200924110651 21 311 0.0 17.7 0.00 0.00 0.00 99 1012.3
20200924110225 21 59 4.8 17.7 0.00 0.00 0.00 99 1012.2
20200924110152 21 59 4.8 17.7 0.00 0.00 0.00 99 1012.2
20200924105726 21 23 6.4 17.7 0.00 0.00 0.00 99 1012.2
20200924105651 21 23 6.4 17.7 0.00 0.00 0.00 99 1012.2
20200924105224 21 5 3.2 17.7 0.00 0.00 0.00 99 1012.1
20200924105150 21 5 3.2 17.7 0.00 0.00 0.00 99 1012.1
20200924104725 21 22 4.8 17.7 0.00 0.00 0.00 99 1012.1
20200924104650 21 22 4.8 17.7 0.00 0.00 0.00 99 1012.1
20200924104225 21 34 8.0 17.7 0.00 0.00 0.00 99 1012.1
20200924104150 21 34 8.0 17.7 0.00 0.00 0.00 99 1012.1
20200924103725 21 17 8.0 17.7 0.00 0.00 0.00 99 1011.9
20200924103650 21 17 8.0 17.7 0.00 0.00 0.00 99 1011.9
20200924103228 21 357 9.7 17.7 0.00 0.00 0.00 99 1011.9
20200924103151 21 357 9.7 17.7 0.00 0.00 0.00 99 1011.9
20200924102724 21 16 12.9 17.7 0.00 0.00 0.00 99 1011.6
20200924102651 21 16 12.9 17.7 0.00 0.00 0.00 99 1011.6
20200924102225 20 12 8.0 17.7 0.00 0.00 0.00 99 1011.6
20200924102154 20 12 8.0 17.7 0.00 0.00 0.00 99 1011.6
20200924101724 20 55 6.4 17.7 0.00 0.00 0.00 99 1011.6
20200924101650 20 55 6.4 17.7 0.00 0.00 0.00 99 1011.6
20200924101224 20 2 12.9 17.7 0.00 0.00 0.00 99 1011.6
20200924101151 20 2 12.9 17.7 0.00 0.00 0.00 99 1011.6
20200924100725 20 22 8.0 14.5 0.00 0.00 0.00 99 1011.6
20200924100649 20 22 8.0 14.5 0.00 0.00 0.00 99 1011.6
20200924100225 20 22 8.0 14.5 0.00 0.00 0.00 99 1011.6
20200924100152 20 22 8.0 14.5 0.00 0.00 0.00 99 1011.6
20200924095726 20 20 9.7 14.5 0.00 0.00 0.00 99 1011.6
20200924095649 20 20 9.7 14.5 0.00 0.00 0.00 99 1011.6
20200924095224 21 22 8.0 14.5 0.00 0.00 0.00 99 1011.5
20200924095150 21 22 8.0 14.5 0.00 0.00 0.00 99 1011.5
20200924094725 21 22 6.4 14.5 0.00 0.00 0.00 99 1011.5
20200924094651 21 22 6.4 14.5 0.00 0.00 0.00 99 1011.5
20200924094225 21 11 8.0 14.5 0.00 0.00 0.00 99 1011.5
20200924094150 21 11 8.0 14.5 0.00 0.00 0.00 99 1011.5
20200924093725 21 10 6.4 14.5 0.00 0.00 0.00 99 1011.4
20200924093650 21 10 6.4 14.5 0.00 0.00 0.00 99 1011.4
20200924093224 21 11 8.0 14.5 0.00 0.00 0.00 99 1011.4
20200924093150 21 11 8.0 14.5 0.00 0.00 0.00 99 1011.4
20200924092807 21 43 11.3 14.5 0.00 0.00 0.00 99 1011.4
20200924092724 21 30 9.7 14.5 0.00 0.00 0.00 99 1011.4
20200924092311 21 32 8.0 14.5 0.00 0.00 0.00 99 1011.4
20200924092233 21 354 9.7 14.5 0.00 0.00 0.00 99 1011.4
20200924091809 21 332 9.7 14.5 0.00 0.00 0.00 99 1011.4
20200924091726 21 340 9.7 14.5 0.00 0.00 0.00 99 1011.3
20200924091306 20 20 9.7 14.5 0.00 0.00 0.00 99 1011.3
20200924091224 20 29 9.7 14.5 0.00 0.00 0.00 99 1011.3
20200924090806 20 41 8.0 14.5 0.00 0.00 0.00 99 1011.3
20200924090727 20 356 8.0 14.5 0.00 0.00 0.00 99 1011.3
20200924090307 20 45 8.0 14.5 0.00 0.00 0.00 99 1011.1
20200924090225 20 44 9.7 14.5 0.00 0.00 0.00 99 1011.1
20200924085807 19 22 6.4 14.5 0.00 0.00 0.00 99 1011.1
20200924085726 19 22 8.0 14.5 0.00 0.00 0.00 99 1011.1
20200924085307 19 24 4.8 14.5 0.00 0.00 0.00 99 1011.1
20200924085224 19 45 4.8 14.5 0.00 0.00 0.00 99 1011.1
20200924084807 19 27 6.4 14.5 0.00 0.00 0.00 99 1011.1
20200924084725 19 17 6.4 14.5 0.00 0.00 0.00 99 1011.1
20200924084307 19 55 4.8 14.5 0.00 0.00 0.00 99 1011.1
20200924084228 19 29 4.8 14.5 0.00 0.00 0.00 99 1011.1
20200924083808 19 34 4.8 14.5 0.00 0.00 0.00 99 1011.2
20200924083727 19 26 4.8 14.5 0.00 0.00 0.00 99 1011.2
20200924083305 19 57 4.8 14.5 0.00 0.00 0.00 99 1011.2
20200924083225 19 24 4.8 14.5 0.00 0.00 0.00 99 1011.2
20200924082808 19 36 4.8 14.5 0.00 0.00 0.00 99 1010.9
20200924082729 19 22 4.8 14.5 0.00 0.00 0.00 99 1010.9
20200924082312 19 9 6.4 14.5 0.00 0.03 0.00 99 1010.9
20200924082227 19 23 4.8 14.5 0.00 0.03 0.00 99 1010.9
20200924081806 19 3 6.4 14.5 0.00 0.03 0.00 99 1010.9
20200924081726 19 354 4.8 14.5 0.00 0.03 0.00 99 1010.8
20200924081306 19 22 0.0 14.5 0.00 0.03 0.00 99 1010.8
20200924081223 19 22 0.0 14.5 0.00 0.03 0.00 99 1010.8
20200924080816 19 18 0.0 14.5 0.00 0.03 0.00 99 1010.8
20200924080729 19 75 0.0 14.5 0.00 0.03 0.00 99 1010.8
20200924080306 19 42 0.0 14.5 0.00 0.03 0.00 99 1010.6
20200924080227 19 318 0.0 14.5 0.00 0.03 0.00 99 1010.6
20200924075806 19 292 0.0 14.5 0.00 0.03 0.00 99 1010.6
20200924075724 19 15 0.0 14.5 0.00 0.05 0.00 99 1010.6
20200924075307 19 34 0.0 14.5 0.00 0.05 0.00 99 1010.5
20200924075225 19 339 0.0 14.5 0.00 0.05 0.00 99 1010.5
20200924074807 19 270 0.0 14.5 0.00 0.05 0.00 99 1010.5
20200924074724 19 295 0.0 14.5 0.00 0.05 0.00 99 1010.5
20200924074307 19 302 0.0 14.5 0.00 0.05 0.00 99 1010.5
20200924074224 19 303 0.0 14.5 0.00 0.05 0.00 99 1010.4
20200924073806 18 41 0.0 14.5 0.00 0.05 0.00 99 1010.3
20200924073726 18 90 0.0 14.5 0.00 0.05 0.00 99 1010.3
20200924073306 18 55 0.0 14.5 0.00 0.05 0.00 99 1010.3
20200924073224 18 85 3.2 14.5 0.00 0.05 0.00 99 1010.3
20200924072808 18 64 0.0 14.5 0.00 0.05 0.00 99 1010.1
20200924072724 18 82 1.6 14.5 0.00 0.05 0.00 99 1010.1
20200924072306 18 45 3.2 14.5 0.00 0.05 0.00 99 1010.1
20200924072225 18 45 4.8 14.5 0.00 0.05 0.00 99 1010.1
20200924071807 18 59 6.4 14.5 0.00 0.05 0.00 99 1010.1
20200924071724 18 62 4.8 14.5 0.00 0.05 0.00 99 1010.1
20200924071306 18 31 4.8 14.5 0.00 0.05 0.00 99 1010.0
20200924071224 18 45 4.8 14.5 0.00 0.05 0.00 99 1010.0
20200924070809 18 55 4.8 14.5 0.00 0.05 0.00 99 1010.0
20200924070724 18 37 4.8 14.5 0.00 0.05 0.00 99 1010.0
20200924070305 18 35 4.8 14.5 0.00 0.05 0.00 99 1009.8
20200924070226 18 22 4.8 14.5 0.00 0.05 0.00 99 1009.8
20200924065811 18 27 4.8 14.5 0.00 0.05 0.00 99 1009.8
20200924065726 18 22 3.2 14.5 0.00 0.05 0.00 99 1009.8
20200924065308 18 24 0.0 14.5 0.00 0.05 0.00 99 1009.9
20200924065227 18 22 0.0 14.5 0.00 0.05 0.00 99 1009.9
20200924064807 18 22 0.0 14.5 0.00 0.05 0.00 99 1009.9
20200924064725 18 13 0.0 14.5 0.00 0.05 0.00 99 1009.9
20200924064307 18 270 0.0 14.5 0.00 0.05 0.00 99 1009.9
20200924064224 18 270 0.0 14.5 0.00 0.05 0.00 99 1010.0
20200924063810 18 270 0.0 14.5 0.00 0.05 0.00 99 1010.1
20200924063725 18 270 0.0 14.5 0.00 0.05 0.00 99 1010.1
20200924063305 18 3 0.0 14.5 0.00 0.05 0.00 99 1010.1
20200924063225 18 22 0.0 14.5 0.00 0.05 0.00 99 1010.1
20200924062808 17 158 0.0 14.5 0.00 0.08 0.00 99 1009.8
20200924062724 17 158 0.0 14.5 0.00 0.08 0.00 99 1009.8
20200924062308 17 141 0.0 14.5 0.00 0.25 0.00 99 1009.8
20200924062224 17 99 0.0 14.5 0.00 0.30 0.00 99 1009.8
20200924061805 17 79 0.0 14.5 0.00 0.38 0.00 99 1009.7
20200924061724 17 55 0.0 14.5 0.00 0.38 0.00 99 1009.5
20200924061307 17 45 0.0 14.5 0.00 0.41 0.00 99 1009.5
20200924061225 17 45 0.0 14.5 0.00 0.41 0.00 99 1009.5
20200924060806 17 45 1.6 14.5 0.00 0.41 0.00 99 1009.5
20200924060724 17 28 3.2 14.5 0.00 0.41 0.00 99 1009.5
20200924060306 17 45 3.2 14.5 0.00 0.41 0.00 99 1009.2
20200924060225 17 32 3.2 14.5 0.00 0.41 0.00 99 1009.2
20200924055807 17 22 4.8 14.5 0.00 0.43 0.00 99 1009.2
20200924055727 17 22 4.8 14.5 0.00 0.43 0.00 99 1009.2
20200924055309 17 36 6.4 14.5 0.00 0.43 0.00 99 1009.1
20200924055225 17 22 6.4 14.5 0.00 0.43 0.00 99 1009.0
20200924054805 17 53 4.8 14.5 0.00 0.43 0.00 99 1009.0
20200924054732 17 46 4.8 14.5 0.00 0.43 0.00 99 1009.0
20200924054310 18 36 4.8 14.5 0.00 0.43 0.00 99 1009.0
20200924054224 18 24 4.8 14.5 0.00 0.43 0.00 99 1009.0
20200924053806 18 22 4.8 14.5 0.00 0.43 0.00 99 1008.9
20200924053726 18 26 4.8 14.5 0.00 0.43 0.00 99 1008.9
20200924053306 18 34 6.4 14.5 0.00 0.43 0.00 99 1008.9
20200924053228 18 45 6.4 14.5 0.00 0.46 0.00 99 1008.9
20200924052804 18 30 6.4 14.5 0.00 0.46 0.00 99 1009.1
20200924052724 18 22 6.4 14.5 0.00 0.46 0.00 99 1009.1
20200924052306 18 16 4.8 14.5 0.00 0.48 0.00 99 1009.1
20200924052232 18 33 3.2 14.5 0.00 0.48 0.00 99 1009.1
20200924051806 18 4 0.0 14.5 0.00 0.48 0.00 99 1009.1
20200924051729 18 12 0.0 14.5 0.00 0.48 0.00 99 1008.8
20200924051309 18 27 3.2 14.5 0.00 0.48 0.00 99 1008.8
20200924051224 18 13 3.2 14.5 0.00 0.48 0.00 99 1008.8
20200924050806 18 61 3.2 14.5 0.00 0.48 0.00 99 1008.8
20200924050724 18 68 4.8 14.5 0.00 0.48 0.00 99 1008.8
20200924050306 18 45 4.8 14.5 0.00 0.48 0.00 99 1009.0
20200924050224 18 57 4.8 14.5 0.00 0.48 0.00 99 1009.0
20200924045807 18 59 0.0 14.5 0.00 0.48 0.00 99 1009.0
20200924045724 18 64 0.0 14.5 0.00 0.48 0.00 99 1009.0
20200924045307 18 68 0.0 14.5 0.00 0.48 0.00 99 1009.2
20200924045224 18 86 0.0 14.5 0.00 0.48 0.00 99 1009.2
20200924044809 18 68 0.0 14.5 0.00 0.48 0.00 99 1009.2
20200924044724 18 60 0.0 14.5 0.00 0.48 0.00 99 1009.2
20200924044304 18 60 0.0 14.5 0.00 0.48 0.00 99 1009.2
20200924044224 18 68 0.0 14.5 0.00 0.48 0.00 99 1009.1
20200924043816 18 90 0.0 14.5 0.00 0.48 0.00 99 1009.1
20200924043723 18 90 0.0 14.5 0.00 0.48 0.00 99 1009.1
20200924043307 18 90 0.0 14.5 0.00 0.48 0.00 99 1009.1
20200924043225 18 78 0.0 14.5 0.00 0.48 0.00 99 1009.1
20200924042804 18 68 0.0 14.5 0.00 0.48 0.00 99 1009.1
20200924042724 18 68 0.0 14.5 0.00 0.48 0.00 99 1009.1
20200924042306 18 57 0.0 14.5 0.00 0.48 0.00 99 1009.1
20200924042232 18 58 0.0 14.5 0.00 0.48 0.00 99 1009.1
20200924041805 18 28 0.0 14.5 0.00 0.48 0.00 99 1009.1
20200924041724 18 45 0.0 14.5 0.00 0.48 0.00 99 1008.9
20200924041305 18 45 3.2 14.5 0.00 0.48 0.00 99 1008.9
20200924041226 18 41 3.2 14.5 0.00 0.48 0.00 99 1008.9
20200924040805 18 32 3.2 14.5 0.00 0.48 0.00 99 1008.9
20200924040726 18 51 3.2 14.5 0.00 0.48 0.00 99 1008.9
20200924040306 18 45 3.2 14.5 0.00 0.48 0.00 99 1009.0
20200924040224 18 35 4.8 14.5 0.00 0.48 0.00 99 1009.0
20200924035805 18 24 6.4 14.5 0.00 0.48 0.00 99 1009.0
20200924035724 18 45 4.8 14.5 0.00 0.48 0.00 99 1009.0
20200924035307 18 35 6.4 14.5 0.00 0.48 0.00 99 1009.1
20200924035223 18 13 6.4 14.5 0.00 0.48 0.00 99 1009.1
20200924034805 18 53 4.8 14.5 0.00 0.48 0.00 99 1009.1
20200924034724 18 38 6.4 14.5 0.00 0.48 0.00 99 1009.1
20200924034306 18 32 6.4 14.5 0.00 0.48 0.00 99 1009.1
20200924034224 18 40 4.8 14.5 0.00 0.48 0.00 99 1009.1
20200924033820 18 45 4.8 14.5 0.00 0.48 0.00 99 1009.0
20200924033726 18 45 4.8 14.5 0.00 0.48 0.00 99 1009.0
20200924033305 18 23 8.0 14.5 0.00 0.48 0.00 99 1009.0
20200924033224 18 35 8.0 14.5 0.00 0.48 0.00 99 1009.0
20200924032804 18 32 6.4 14.5 0.00 0.48 0.00 99 1008.9
20200924032725 18 45 4.8 14.5 0.00 0.48 0.00 99 1008.9
20200924032306 18 31 6.4 14.5 0.00 0.48 0.00 99 1008.9
20200924032223 18 45 6.4 14.5 0.00 0.48 0.00 99 1008.9
20200924031805 18 36 8.0 14.5 0.00 0.48 0.00 99 1008.9
20200924031724 18 22 6.4 14.5 0.00 0.48 0.00 99 1009.0
20200924031304 18 34 8.0 14.5 0.00 0.48 0.00 99 1009.0
20200924031226 18 68 8.0 14.5 0.00 0.48 0.00 99 1009.0
20200924030805 18 40 8.0 14.5 0.00 0.48 0.00 99 1009.0
20200924030722 18 48 6.4 14.5 0.00 0.48 0.00 99 1009.0
20200924030306 18 45 6.4 14.5 0.00 0.48 0.00 99 1009.1
20200924030226 18 45 6.4 14.5 0.00 0.48 0.00 99 1009.1
20200924025805 18 25 8.0 14.5 0.00 0.48 0.00 99 1009.1
20200924025724 18 33 8.0 14.5 0.00 0.48 0.00 99 1009.1
20200924025317 18 31 11.3 14.5 0.00 0.48 0.00 99 1009.3
20200924025223 18 36 9.7 14.5 0.00 0.48 0.00 99 1009.3
20200924024806 19 35 9.7 14.5 0.00 0.48 0.00 99 1009.3
20200924024723 19 72 9.7 14.5 0.00 0.48 0.00 99 1009.3
20200924024304 19 35 9.7 14.5 0.00 0.48 0.00 99 1009.3
20200924024224 19 22 9.7 14.5 0.00 0.48 0.00 99 1009.3
20200924023811 19 43 8.0 14.5 0.00 0.48 0.00 99 1009.3
20200924023723 19 45 11.3 14.5 0.00 0.48 0.00 99 1009.3
20200924023305 19 45 8.0 12.9 0.00 0.48 0.00 99 1009.3
20200924023223 19 40 8.0 12.9 0.00 0.48 0.00 99 1009.3
20200924022804 19 34 8.0 12.9 0.00 0.48 0.00 99 1009.4
20200924022723 19 32 6.4 12.9 0.00 0.48 0.00 99 1009.4
20200924022308 19 54 9.7 12.9 0.00 0.48 0.00 99 1009.4
20200924022226 19 54 8.0 12.9 0.00 0.48 0.00 99 1009.4
20200924021806 19 34 9.7 12.9 0.00 0.48 0.00 99 1009.4
20200924021723 19 41 8.0 12.9 0.00 0.48 0.00 99 1009.4
20200924021306 19 41 8.0 11.3 0.00 0.48 0.00 99 1009.5
20200924021224 19 43 8.0 11.3 0.00 0.48 0.00 99 1009.5
20200924020809 19 57 8.0 11.3 0.00 0.48 0.00 99 1009.5
20200924020724 19 31 8.0 11.3 0.00 0.48 0.00 99 1009.5
20200924020307 19 45 6.4 11.3 0.00 0.48 0.00 99 1009.5
20200924020223 19 31 8.0 11.3 0.00 0.48 0.00 99 1009.5
20200924015805 19 32 6.4 11.3 0.00 0.48 0.00 99 1009.5
20200924015729 19 15 6.4 11.3 0.00 0.48 0.00 99 1009.5
20200924015316 19 49 6.4 11.3 0.00 0.48 0.00 99 1009.4
20200924015224 19 90 6.4 11.3 0.00 0.48 0.00 99 1009.4
20200924014805 19 32 6.4 11.3 0.00 0.48 0.00 99 1009.4
20200924014724 19 47 6.4 11.3 0.00 0.48 0.00 99 1009.4
20200924014304 19 36 6.4 11.3 0.00 0.51 0.00 99 1009.4
20200924014225 19 22 6.4 11.3 0.00 0.51 0.00 99 1009.4
20200924013805 19 32 6.4 11.3 0.00 0.51 0.00 99 1009.4
20200924013722 19 45 6.4 11.3 0.00 0.51 0.00 99 1009.4
20200924013305 19 53 6.4 11.3 0.00 0.51 0.00 99 1009.4
20200924013224 19 44 6.4 11.3 0.00 0.51 0.00 99 1009.4
20200924012805 19 37 8.0 11.3 0.00 0.51 0.00 99 1009.2
20200924012723 19 18 8.0 11.3 0.00 0.51 0.00 99 1009.2
20200924012321 20 9 6.4 11.3 0.00 0.51 0.00 99 1009.2
20200924012224 20 0 4.8 11.3 0.00 0.51 0.00 99 1009.2
20200924011805 20 45 3.2 11.3 0.00 0.51 0.00 99 1009.2
20200924011723 20 24 4.8 11.3 0.00 0.51 0.00 99 1009.2
20200924011308 20 43 8.0 11.3 0.00 0.51 0.00 99 1009.2
20200924011222 20 13 8.0 11.3 0.00 0.51 0.00 99 1009.2
20200924010808 20 0 6.4 11.3 0.00 0.51 0.00 99 1009.2
20200924010723 20 26 6.4 11.3 0.00 0.51 0.00 99 1009.2
20200924010305 20 47 6.4 11.3 0.00 0.51 0.00 99 1009.3
20200924010225 20 47 6.4 11.3 0.00 0.51 0.00 99 1009.3
20200924005803 20 55 9.7 11.3 0.00 0.51 0.00 99 1009.3
20200924005723 20 49 8.0 11.3 0.00 0.51 0.00 99 1009.3
20200924005305 20 51 9.7 11.3 0.00 0.51 0.00 99 1009.3
20200924005222 20 56 8.0 11.3 0.00 0.51 0.00 99 1009.3
20200924004806 20 52 8.0 9.7 0.00 0.51 0.00 99 1009.3
20200924004723 20 51 8.0 9.7 0.00 0.51 0.00 99 1009.3
20200924004303 20 67 6.4 9.7 0.00 0.51 0.00 99 1009.3
20200924004223 20 33 6.4 9.7 0.00 0.51 0.00 99 1009.3
20200924003810 20 80 6.4 8.0 0.00 0.51 0.00 99 1009.3
20200924003722 20 54 4.8 8.0 0.00 0.51 0.00 99 1009.3
20200924003305 20 35 6.4 8.0 0.00 0.51 0.00 99 1009.3
20200924003222 20 31 4.8 8.0 0.00 0.51 0.00 99 1009.3
20200924002807 20 355 6.4 8.0 0.00 0.51 0.00 99 1009.4
20200924002722 20 12 4.8 8.0 0.00 0.51 0.00 99 1009.4
20200924002308 20 27 6.4 8.0 0.00 0.51 0.00 99 1009.4
20200924002223 20 34 4.8 6.4 0.00 0.51 0.00 99 1009.4
20200924001806 20 37 3.2 4.8 0.00 0.51 0.00 99 1009.4
20200924001721 20 22 3.2 4.8 0.00 0.51 0.00 99 1009.4
20200924001305 20 22 0.0 4.8 0.00 0.51 0.00 99 1009.4
20200924001223 20 22 0.0 4.8 0.00 0.51 0.00 99 1009.4
20200924000808 20 270 0.0 4.8 0.00 0.51 0.00 99 1009.4
20200924000724 20 270 0.0 4.8 0.00 0.51 0.00 99 1009.4
20200924000310 20 270 0.0 4.8 0.00 0.51 0.00 99 1009.4
20200924000225 20 272 0.0 4.8 0.00 0.51 0.00 99 1009.4
20200923235803 20 270 0.0 4.8 0.00 0.51 0.00 99 1009.4
20200923235725 20 270 0.0 4.8 0.00 0.51 0.00 99 1009.4
20200923235305 20 270 0.0 4.8 0.00 0.51 0.00 99 1009.3
20200923235222 20 270 0.0 4.8 0.00 0.51 0.00 99 1009.2
20200923234805 20 270 0.0 4.8 0.00 0.51 0.00 99 1009.2
20200923234721 20 270 0.0 4.8 0.00 0.51 0.00 99 1009.2
20200923234303 20 248 0.0 4.8 0.00 0.51 0.00 99 1009.2
20200923234223 20 248 0.0 4.8 0.00 0.51 0.00 99 1009.2
20200923233803 21 261 0.0 4.8 0.00 0.51 0.00 99 1009.4
20200923233722 21 234 0.0 4.8 0.00 0.51 0.00 99 1009.4
20200923233306 21 233 0.0 4.8 0.00 0.51 0.00 99 1009.4
20200923233221 21 231 0.0 4.8 0.00 0.51 0.00 99 1009.4
20200923232804 21 248 0.0 4.8 0.00 0.51 0.00 99 1009.3
20200923232723 21 230 0.0 4.8 0.00 0.51 0.00 99 1009.3
20200923232305 21 225 1.6 4.8 0.00 0.51 0.00 99 1009.3
20200923232224 21 225 0.0 4.8 0.00 0.51 0.00 99 1009.3
20200923231812 21 238 1.6 4.8 0.00 0.51 0.00 99 1009.2
20200923231723 21 238 0.0 4.8 0.00 0.51 0.00 99 1009.2
20200923231316 21 258 0.0 4.8 0.00 0.51 0.00 99 1009.2
20200923231225 21 228 0.0 4.8 0.00 0.51 0.00 99 1009.2
20200923230805 21 216 3.2 4.8 0.00 0.51 0.00 99 1009.2
20200923230721 21 225 1.6 4.8 0.00 0.51 0.00 99 1009.2
20200923230304 21 229 0.0 0.0 0.00 0.51 0.00 99 1009.2
20200923230221 21 212 0.0 0.0 0.00 0.51 0.00 99 1009.2
20200923225810 21 233 0.0 22.5 0.00 0.51 0.51 99 1009.2
20200923225722 21 211 3.2 22.5 0.00 0.51 0.51 99 1009.2
20200923225305 21 189 4.8 22.5 0.00 0.51 0.51 99 1009.5
20200923225223 21 191 3.2 22.5 0.00 0.51 0.51 99 1009.5
20200923224807 21 181 3.2 22.5 0.00 0.51 0.51 99 1009.5
20200923224721 21 184 3.2 22.5 0.00 0.51 0.51 99 1009.5
20200923224303 21 225 3.2 22.5 0.00 0.51 0.51 99 1009.5
20200923224222 21 213 1.6 22.5 0.00 0.51 0.51 99 1009.5
20200923223806 21 224 4.8 22.5 0.00 0.51 0.51 99 1009.4
20200923223721 21 197 3.2 22.5 0.00 0.51 0.51 99 1009.4
20200923223306 21 203 1.6 22.5 0.00 0.51 0.51 99 1009.4
20200923223222 21 225 0.0 22.5 0.00 0.51 0.51 99 1009.4
20200923222805 21 226 0.0 22.5 0.00 0.51 0.51 99 1009.3
20200923222724 21 234 0.0 22.5 0.00 0.51 0.51 99 1009.3
20200923222306 21 195 0.0 22.5 0.00 0.51 0.51 99 1009.3
20200923222229 21 219 0.0 22.5 0.00 0.51 0.51 99 1009.3
20200923221806 21 223 0.0 22.5 0.00 0.51 0.51 99 1009.3
20200923221724 21 202 0.0 22.5 0.00 0.51 0.51 99 1009.3
20200923221304 21 191 1.6 22.5 0.00 0.51 0.51 99 1009.3
20200923221223 21 190 3.2 22.5 0.00 0.51 0.51 99 1009.3
20200923220803 21 253 1.6 22.5 0.00 0.51 0.51 99 1009.3
20200923220722 21 222 3.2 22.5 0.00 0.51 0.51 99 1009.3
20200923220307 21 211 3.2 22.5 0.00 0.51 0.51 99 1009.4
20200923220222 21 198 4.8 22.5 0.00 0.51 0.51 99 1009.4
20200923215804 21 190 4.8 22.5 0.00 0.51 0.51 99 1009.4
20200923215723 21 188 3.2 22.5 0.00 0.51 0.51 99 1009.4
20200923215304 21 218 3.2 22.5 0.00 0.51 0.51 99 1009.3
20200923215222 21 216 3.2 22.5 0.00 0.51 0.51 99 1009.3
20200923214803 21 216 3.2 22.5 0.00 0.51 0.51 99 1009.3
20200923214721 21 211 1.6 22.5 0.00 0.51 0.51 99 1009.3
20200923214303 21 240 0.0 22.5 0.00 0.51 0.51 99 1009.3
20200923214222 21 230 1.6 22.5 0.00 0.51 0.51 99 1009.3
20200923213804 21 238 1.6 22.5 0.00 0.51 0.51 99 1009.2
20200923213721 21 229 3.2 22.5 0.00 0.51 0.51 99 1009.2
20200923213304 21 180 3.2 22.5 0.00 0.51 0.51 99 1009.2
20200923213222 21 177 3.2 22.5 0.00 0.51 0.51 99 1009.2
20200923212804 21 180 1.6 22.5 0.00 0.51 0.51 99 1009.2
20200923212722 21 193 0.0 22.5 0.00 0.51 0.51 99 1009.2
20200923212308 21 180 3.2 22.5 0.00 0.51 0.51 99 1009.2
20200923212222 21 192 1.6 22.5 0.00 0.51 0.51 99 1009.2
20200923211804 21 190 0.0 22.5 0.00 0.51 0.51 99 1009.2
20200923211722 21 217 0.0 22.5 0.00 0.51 0.51 99 1009.1
20200923211306 21 202 3.2 22.5 0.00 0.51 0.51 99 1009.1
20200923211221 21 172 3.2 22.5 0.00 0.51 0.51 99 1009.1
20200923210804 21 198 3.2 22.5 0.00 0.51 0.51 99 1009.1
20200923210721 21 215 3.2 22.5 0.00 0.51 0.51 99 1009.1
20200923210304 21 202 3.2 22.5 0.00 0.51 0.51 99 1009.1
20200923210222 21 166 4.8 22.5 0.00 0.51 0.51 99 1009.1
20200923205805 21 201 3.2 22.5 0.00 0.51 0.51 99 1009.1
20200923205721 21 210 3.2 22.5 0.00 0.51 0.51 99 1009.1
20200923205307 21 202 0.0 22.5 0.00 0.51 0.51 99 1008.9
20200923205229 21 253 0.0 22.5 0.00 0.51 0.51 99 1008.7
20200923204804 21 169 0.0 22.5 0.00 0.51 0.51 99 1008.7
20200923204722 21 200 0.0 22.5 0.00 0.51 0.51 99 1008.7
20200923204304 21 169 0.0 22.5 0.00 0.51 0.51 99 1008.7
20200923204230 21 193 0.0 22.5 0.00 0.51 0.51 99 1008.7
20200923203821 21 177 0.0 22.5 0.00 0.51 0.51 99 1008.8
20200923203724 21 169 0.0 22.5 0.00 0.51 0.51 99 1008.8
20200923203302 21 248 0.0 22.5 0.00 0.51 0.51 99 1008.8
20200923203227 21 244 0.0 22.5 0.00 0.51 0.51 99 1008.8
20200923202803 21 269 0.0 22.5 0.00 0.51 0.51 99 1008.9
20200923202731 21 251 0.0 22.5 0.00 0.51 0.51 99 1008.9
20200923202306 21 270 0.0 22.5 0.00 0.51 0.51 99 1008.9
20200923202222 21 270 0.0 22.5 0.00 0.51 0.51 99 1008.9
20200923201804 21 270 0.0 22.5 0.00 0.51 0.51 99 1008.9
20200923201722 21 270 0.0 22.5 0.00 0.51 0.51 99 1008.7
20200923201303 21 257 0.0 22.5 0.00 0.51 0.51 99 1008.7
20200923201222 21 244 0.0 22.5 0.00 0.51 0.51 99 1008.7
20200923200808 21 258 0.0 22.5 0.00 0.51 0.51 99 1008.7
20200923200721 21 238 0.0 22.5 0.00 0.51 0.51 99 1008.7
20200923200306 21 262 1.6 22.5 0.00 0.53 0.51 99 1008.6
20200923200221 21 266 1.6 22.5 0.00 0.53 0.51 99 1008.6
20200923195805 22 218 3.2 22.5 0.00 0.53 0.51 99 1008.6
20200923195724 22 206 1.6 22.5 0.00 0.53 0.51 99 1008.6
20200923195306 22 262 0.0 22.5 0.00 0.53 0.51 99 1008.6
20200923195222 21 212 0.0 22.5 0.00 0.53 0.51 99 1008.6
20200923194812 21 248 3.2 22.5 0.00 0.53 0.51 99 1008.6
20200923194722 21 263 3.2 22.5 0.00 0.53 0.51 99 1008.6
20200923194304 21 283 4.8 22.5 0.00 0.53 0.51 99 1008.6
20200923194221 22 266 4.8 22.5 0.00 0.53 0.51 99 1008.6
20200923193820 22 259 0.0 22.5 0.00 0.53 0.51 99 1008.1
20200923193728 22 270 0.0 22.5 0.00 0.53 0.51 99 1008.1
20200923193309 22 270 0.0 22.5 0.00 0.53 0.51 99 1008.1
20200923193221 22 270 0.0 22.5 0.00 0.53 0.51 99 1008.1
20200923192805 22 270 0.0 22.5 0.00 0.53 0.51 99 1008.0
20200923192724 22 287 0.0 22.5 0.00 0.53 0.51 99 1008.0
20200923192339 22 315 0.0 22.5 0.00 0.53 0.51 99 1008.0
20200923192222 22 315 0.0 22.5 0.00 0.53 0.51 99 1008.0
20200923191804 22 270 0.0 22.5 0.00 0.53 0.51 99 1008.0
20200923191722 22 270 0.0 22.5 0.00 0.53 0.51 99 1008.1
20200923191303 22 294 0.0 22.5 0.00 0.53 0.51 99 1008.2
20200923191220 22 270 1.6 22.5 0.00 0.53 0.51 99 1008.2
20200923190804 22 270 4.8 22.5 0.00 0.53 0.51 99 1008.2
20200923190721 22 270 4.8 22.5 0.00 0.53 0.51 99 1008.2
20200923190303 22 255 0.0 22.5 0.00 0.53 0.51 99 1008.2
20200923190222 22 270 0.0 22.5 0.00 0.53 0.51 99 1008.2
20200923185804 22 180 0.0 22.5 0.00 0.53 0.51 99 1008.2
20200923185721 22 198 0.0 22.5 0.00 0.53 0.51 99 1008.2
20200923185305 22 225 3.2 22.5 0.00 0.53 0.51 99 1007.9
20200923185223 22 254 3.2 22.5 0.00 0.53 0.51 99 1007.9
20200923184803 22 260 3.2 22.5 0.00 0.53 0.51 99 1007.9
20200923184720 22 225 3.2 22.5 0.00 0.53 0.51 99 1007.9
20200923184307 22 260 0.0 22.5 0.00 0.53 0.51 99 1007.9
20200923184223 22 282 0.0 22.5 0.00 0.53 0.51 99 1007.9
20200923183805 22 276 0.0 22.5 0.00 0.53 0.51 99 1007.9
20200923183722 22 279 0.0 22.5 0.00 0.53 0.51 99 1007.9
20200923183307 22 270 4.8 22.5 0.00 0.53 0.51 99 1007.9
20200923183221 22 270 4.8 22.5 0.00 0.53 0.51 99 1007.9
20200923182808 23 259 3.2 22.5 0.00 0.53 0.51 99 1007.9
20200923182721 23 267 3.2 22.5 0.00 0.53 0.51 99 1007.9
20200923182306 23 286 3.2 22.5 0.00 0.53 0.51 99 1007.9
20200923182222 23 292 4.8 22.5 0.00 0.53 0.51 99 1007.9
20200923181804 23 270 6.4 22.5 0.00 0.53 0.51 99 1007.9
20200923181722 23 270 4.8 22.5 0.00 0.53 0.51 99 1007.9
20200923181303 23 270 6.4 22.5 0.00 0.53 0.51 99 1007.9
20200923181221 23 270 6.4 22.5 0.00 0.53 0.51 99 1007.9
20200923180807 23 270 4.8 22.5 0.00 0.53 0.51 99 1007.9
20200923180720 23 257 6.4 22.5 0.00 0.53 0.51 99 1007.9
20200923180305 23 256 8.0 22.5 0.00 0.53 0.51 99 1007.8
20200923180223 23 242 6.4 22.5 0.00 0.53 0.51 99 1007.8
20200923175803 23 270 4.8 22.5 0.00 0.53 0.51 99 1007.8
20200923175720 23 258 4.8 22.5 0.00 0.53 0.51 99 1007.8
20200923175305 23 263 4.8 22.5 0.00 0.53 0.51 99 1007.7
20200923175220 23 231 6.4 22.5 0.00 0.53 0.51 99 1007.7
20200923174804 23 261 4.8 22.5 0.00 0.53 0.51 99 1007.7
20200923174723 23 286 6.4 22.5 0.00 0.53 0.51 99 1007.7
20200923174304 23 276 6.4 22.5 0.00 0.53 0.51 99 1007.7
20200923174220 23 270 3.2 22.5 0.00 0.53 0.51 99 1007.6
20200923173804 23 274 4.8 22.5 0.00 0.53 0.51 99 1007.6
20200923173720 23 269 6.4 22.5 0.00 0.53 0.51 99 1007.6
20200923173302 23 262 6.4 22.5 0.00 0.53 0.51 99 1007.6
20200923173222 23 263 8.0 22.5 0.00 0.53 0.51 99 1007.6
20200923172804 23 282 6.4 22.5 0.00 0.53 0.51 99 1007.5
20200923172722 23 270 8.0 22.5 0.00 0.53 0.51 99 1007.5
20200923172308 23 292 11.3 22.5 0.00 0.53 0.51 99 1007.5
20200923172221 23 265 11.3 22.5 0.00 0.53 0.51 99 1007.5
20200923171803 24 258 9.7 22.5 0.00 0.53 0.51 99 1007.5
20200923171721 24 283 11.3 22.5 0.00 0.53 0.51 99 1007.5
20200923171306 24 262 11.3 22.5 0.00 0.53 0.51 99 1007.5
20200923171221 24 238 11.3 22.5 0.00 0.53 0.51 99 1007.5
20200923170803 25 267 12.9 22.5 0.00 0.53 0.51 99 1007.5
20200923170721 25 281 9.7 22.5 0.00 0.53 0.51 99 1007.5
20200923170303 25 300 12.9 22.5 0.00 0.53 0.51 99 1007.3
20200923170220 25 274 11.3 22.5 0.00 0.53 0.51 99 1007.3
20200923165803 25 278 9.7 22.5 0.00 0.53 0.51 99 1007.3
20200923165721 25 270 8.0 22.5 0.00 0.53 0.51 99 1007.3
20200923165306 25 270 11.3 22.5 0.00 0.53 0.51 99 1007.4
20200923165223 25 270 11.3 22.5 0.00 0.53 0.51 99 1007.4
20200923164803 25 293 12.9 22.5 0.00 0.53 0.51 99 1007.4
20200923164720 25 306 11.3 22.5 0.00 0.53 0.51 99 1007.4
20200923164302 25 270 16.1 22.5 0.00 0.53 0.51 99 1007.4
20200923164221 25 270 16.1 22.5 0.00 0.53 0.51 99 1007.4
20200923163801 25 273 12.9 22.5 0.00 0.53 0.51 99 1007.5
20200923163721 25 272 11.3 22.5 0.00 0.53 0.51 99 1007.5
20200923163306 25 279 9.7 22.5 0.00 0.53 0.51 99 1007.5
20200923163223 25 261 12.9 22.5 0.00 0.53 0.51 99 1007.5
20200923162802 25 260 9.7 22.5 0.00 0.53 0.51 99 1007.2
20200923162721 25 254 8.0 22.5 0.00 0.53 0.51 99 1007.2
20200923162316 25 258 12.9 22.5 0.00 0.53 0.51 99 1007.2
20200923162221 25 261 12.9 22.5 0.00 0.53 0.51 99 1007.2
20200923161803 25 212 6.4 22.5 0.00 0.53 0.51 99 1007.2
20200923161721 25 270 8.0 22.5 0.00 0.53 0.51 99 1007.2
20200923161302 25 249 11.3 22.5 0.00 0.53 0.51 99 1007.2
20200923161221 25 258 11.3 22.5 0.00 0.53 0.51 99 1007.2
20200923160802 25 285 9.7 22.5 0.00 0.53 0.51 99 1007.2
20200923160721 25 254 8.0 22.5 0.00 0.53 0.51 99 1007.2
20200923160305 25 236 6.4 22.5 0.00 0.53 0.51 99 1007.1
20200923160222 25 248 9.7 22.5 0.00 0.53 0.51 99 1007.1
20200923155801 25 250 6.4 22.5 0.00 0.53 0.51 99 1007.1
20200923155721 25 229 4.8 22.5 0.00 0.53 0.51 99 1007.1
20200923155307 25 241 6.4 22.5 0.00 0.53 0.51 99 1007.1
20200923155223 25 235 8.0 22.5 0.00 0.53 0.51 99 1007.1
20200923154803 25 238 6.4 22.5 0.00 0.53 0.51 99 1007.1
20200923154720 25 239 8.0 22.5 0.00 0.53 0.51 99 1007.1
20200923154302 25 225 9.7 22.5 0.00 0.53 0.51 99 1007.1
20200923154221 25 225 8.0 22.5 0.00 0.53 0.51 99 1007.1
20200923153802 25 224 11.3 22.5 0.00 0.53 0.51 99 1007.2
20200923153720 25 202 8.0 22.5 0.00 0.53 0.51 99 1007.2
20200923153307 25 92 4.8 22.5 0.00 0.53 0.51 99 1007.2
20200923153220 25 197 4.8 22.5 0.00 0.53 0.51 99 1007.2
20200923152805 25 199 4.8 22.5 0.00 0.53 0.51 99 1007.1
20200923152720 25 164 6.4 22.5 0.00 0.53 0.51 99 1007.1
20200923152307 25 179 6.4 22.5 0.00 0.53 0.51 99 1007.1
20200923152220 25 211 6.4 22.5 0.00 0.53 0.51 99 1007.1
20200923151802 24 172 9.7 22.5 0.00 0.53 0.51 99 1007.1
20200923151726 24 218 12.9 22.5 0.00 0.53 0.51 99 1007.1
20200923151302 24 194 9.7 22.5 0.00 0.53 0.51 99 1007.2
20200923151220 24 195 9.7 22.5 0.00 0.53 0.51 99 1007.2
20200923150802 25 187 8.0 22.5 0.00 0.53 0.51 99 1007.2
20200923150720 25 202 9.7 22.5 0.00 0.53 0.51 99 1007.2
20200923150304 24 189 9.7 22.5 0.00 0.53 0.51 99 1007.3
20200923150221 24 204 8.0 22.5 0.00 0.53 0.51 99 1007.3